Home / Local Weather & Traffic / California / Grapevine Past Weather

Grapevine, CA Past Weather

Last 30 Days

 
High: 86ºf @1:13 PM    Low: 84ºf @3:13 PM     Approx. Precipitation / Rain Total: in.
Time (PDT)Temp. (ºf)Humidity (%)Dew Point (ºf)Barometer (inHG)Wind Speed (mph)Wind DirectionWind Gust (mph)1hr. Precip / Rain Total (in.)Snow Depth
4:13 PM861837.53-5.21n9.56--
3:13 PM842139.84-5.21n11.3--
2:13 PM852241.87-5.21n9.56--
1:13 PM862242.7-3.48ssw7.82--
High: 85ºf @4:13 PM    Low: 81ºf @10:13 AM     Approx. Precipitation / Rain Total: in.
Time (PDT)Temp. (ºf)Humidity (%)Dew Point (ºf)Barometer (inHG)Wind Speed (mph)Wind DirectionWind Gust (mph)1hr. Precip / Rain Total (in.)Snow Depth
4:13 PM852444.14-6.95n13.9--
3:13 PM842544.37-6.95n13.03--
2:13 PM832442.46-7.82n13.03--
1:13 PM842241.04-6.08n13.9--
12:13 PM842342.19-5.21nnw9.56--
11:13 AM842544.37-5.21nnw8.69--
10:13 AM812541.84-5.21nw8.69--
High: 84ºf @4:13 PM    Low: 80ºf @12:13 PM     Approx. Precipitation / Rain Total: in.
Time (PDT)Temp. (ºf)Humidity (%)Dew Point (ºf)Barometer (inHG)Wind Speed (mph)Wind DirectionWind Gust (mph)1hr. Precip / Rain Total (in.)Snow Depth
5:13 PM842139.84-6.08n12.17--
4:13 PM842241.04-6.95n13.03--
3:13 PM832341.36-6.95n12.17--
2:13 PM832543.52-6.95n12.17--
1:13 PM822542.68-6.08n11.3--
12:13 PM803751.36-6.08n11.3--
10:13 AM813046.62-5.21n7.82--
High: 83ºf @5:13 PM    Low: 79ºf @11:13 AM     Approx. Precipitation / Rain Total: in.
Time (PDT)Temp. (ºf)Humidity (%)Dew Point (ºf)Barometer (inHG)Wind Speed (mph)Wind DirectionWind Gust (mph)1hr. Precip / Rain Total (in.)Snow Depth
5:13 PM833350.9-6.08n13.03--
4:13 PM833250.07-6.95n12.17--
2:13 PM833350.9-7.82nne12.17--
1:13 PM833451.71-6.08n12.17--
12:13 PM804154.16-6.08nne12.17--
11:13 AM794153.26-6.08n9.56--
10:13 AM794052.59-6.08nne9.56--
High: 83ºf @4:13 PM    Low: 77ºf @10:13 AM     Approx. Precipitation / Rain Total: in.
Time (PDT)Temp. (ºf)Humidity (%)Dew Point (ºf)Barometer (inHG)Wind Speed (mph)Wind DirectionWind Gust (mph)1hr. Precip / Rain Total (in.)Snow Depth
5:13 PM823350.03-6.08n13.03--
4:13 PM833250.07-6.95n13.03--
3:13 PM823148.35-6.95n13.03--
2:13 PM823249.2-6.08-12.17--
1:13 PM803247.47-7.82n12.17--
12:13 PM793548.99-6.95n12.17--
11:13 AM783749.6-6.08nne9.56--
10:13 AM773547.23-6.08nne10.43--
High: 82ºf @4:13 PM    Low: 78ºf @10:13 AM     Approx. Precipitation / Rain Total: in.
Time (PDT)Temp. (ºf)Humidity (%)Dew Point (ºf)Barometer (inHG)Wind Speed (mph)Wind DirectionWind Gust (mph)1hr. Precip / Rain Total (in.)Snow Depth
5:13 PM813651.5-6.08nne12.17--
4:13 PM823450.83-6.08nne13.9--
3:13 PM813248.34-6.95nne13.03--
2:13 PM813248.34-7.82nne12.17--
1:13 PM813449.96-6.08n12.17--
12:13 PM793750.48-6.08nne10.43--
11:13 AM793548.99-6.08ne9.56--
10:13 AM783648.86-4.34nne7.82--
High: 86ºf @1:13 PM    Low: 80ºf @10:13 AM     Approx. Precipitation / Rain Total: in.
Time (PDT)Temp. (ºf)Humidity (%)Dew Point (ºf)Barometer (inHG)Wind Speed (mph)Wind DirectionWind Gust (mph)1hr. Precip / Rain Total (in.)Snow Depth
5:13 PM832947.44-5.21nnw10.43--
4:13 PM832846.51-6.08n12.17--
3:13 PM833149.22-6.08nnw13.03--
2:13 PM813147.49-8.69n13.03--
1:13 PM862849.06-6.08ssw13.03--
12:13 PM842948.29-4.34ene14.77--
11:13 AM822744.69-8.69s15.64--
10:13 AM802742.99-6.08s9.56--
High: 85ºf @12:13 PM    Low: 80ºf @11:13 AM     Approx. Precipitation / Rain Total: in.
Time (PDT)Temp. (ºf)Humidity (%)Dew Point (ºf)Barometer (inHG)Wind Speed (mph)Wind DirectionWind Gust (mph)1hr. Precip / Rain Total (in.)Snow Depth
4:13 PM842645.4-5.21n10.43--
3:13 PM842948.29-5.21nw12.17--
2:13 PM803045.76-6.95s12.17--
1:13 PM832543.52-6.08se13.9--
12:13 PM852545.21-9.56s14.77--
11:13 AM803146.62-4.34s8.69--
10:13 AM822744.69-4.34sse6.95--
High: 80ºf @4:13 PM    Low: 76ºf @12:13 PM     Approx. Precipitation / Rain Total: in.
Time (PDT)Temp. (ºf)Humidity (%)Dew Point (ºf)Barometer (inHG)Wind Speed (mph)Wind DirectionWind Gust (mph)1hr. Precip / Rain Total (in.)Snow Depth
5:13 PM792439.11-6.95n---
4:13 PM802338.85-6.08nnw13.03--
3:13 PM792338.02-6.08-12.17--
2:13 PM792540.15-6.08nnw11.3--
1:13 PM772639.47-6.08n11.3--
12:13 PM762739.59-6.08n10.43--
11:13 AM782438.27-5.21ne8.69--
High: 80ºf @3:13 PM    Low: 74ºf @11:13 AM     Approx. Precipitation / Rain Total: in.
Time (PDT)Temp. (ºf)Humidity (%)Dew Point (ºf)Barometer (inHG)Wind Speed (mph)Wind DirectionWind Gust (mph)1hr. Precip / Rain Total (in.)Snow Depth
5:13 PM79812.68-6.95n13.9--
4:13 PM791017.79-6.95n13.03--
3:13 PM801120.77-6.95n12.17--
2:13 PM791120.01-6.95-13.03--
1:13 PM781017.03-6.95n12.17--
12:13 PM761321.61-7.82nne13.03--
11:13 AM7488.98-8.69n13.03--
10:13 AM741421.78-7.82n13.9--
High: 82ºf @3:13 PM    Low: 79ºf @12:13 PM     Approx. Precipitation / Rain Total: in.
Time (PDT)Temp. (ºf)Humidity (%)Dew Point (ºf)Barometer (inHG)Wind Speed (mph)Wind DirectionWind Gust (mph)1hr. Precip / Rain Total (in.)Snow Depth
3:13 PM821732.87-6.08n12.17--
2:13 PM801731.26-6.95n15.64--
1:13 PM822036.95-5.21nnw11.3--
12:13 PM792742.14-6.95ne10.43--
11:13 AM812945.72-5.21nne7.82--
10:13 AM813248.34-4.34nne8.69--
High: 83ºf @6:13 PM    Low: 76ºf @3:13 PM     Approx. Precipitation / Rain Total: in.
Time (PDT)Temp. (ºf)Humidity (%)Dew Point (ºf)Barometer (inHG)Wind Speed (mph)Wind DirectionWind Gust (mph)1hr. Precip / Rain Total (in.)Snow Depth
6:13 PM832644.55-5.21nnw11.3--
3:13 PM763143.16-6.08n9.56--
1:13 PM802944.86-6.08n9.56--
12:13 PM812945.72-6.08n8.69--
11:13 AM832846.51-3.48n7.82--
High: 82ºf @11:13 AM    Low: 77ºf @1:13 PM     Approx. Precipitation / Rain Total: in.
Time (PDT)Temp. (ºf)Humidity (%)Dew Point (ºf)Barometer (inHG)Wind Speed (mph)Wind DirectionWind Gust (mph)1hr. Precip / Rain Total (in.)Snow Depth
6:13 PM793145.76-5.21n11.3--
5:13 PM803045.76-6.08n14.77--
3:13 PM793145.76-7.82n13.03--
1:13 PM773647.98-8.69n13.9--
12:13 PM792944.01-6.95n11.3--
11:13 AM823249.2-4.34n7.82--
10:13 AM783245.73-5.21nne7.82--
High: 81ºf @12:13 PM    Low: 72ºf @7:13 PM     Approx. Precipitation / Rain Total: in.
Time (PDT)Temp. (ºf)Humidity (%)Dew Point (ºf)Barometer (inHG)Wind Speed (mph)Wind DirectionWind Gust (mph)1hr. Precip / Rain Total (in.)Snow Depth
7:13 PM722433.23-4.34n---
5:13 PM772032.84-6.08n10.43--
4:13 PM762840.53-6.08nne12.17--
3:13 PM773748.71-6.95nne11.3--
2:13 PM802944.86-6.08n10.43--
1:13 PM783144.89-6.08nne9.56--
12:13 PM812541.84-5.21ne8.69--
11:13 AM801120.77-6.08s8.69--
10:13 AM771424.15-6.95s8.69--
High: 80ºf @2:13 PM    Low: 71ºf @10:13 AM     Approx. Precipitation / Rain Total: in.
Time (PDT)Temp. (ºf)Humidity (%)Dew Point (ºf)Barometer (inHG)Wind Speed (mph)Wind DirectionWind Gust (mph)1hr. Precip / Rain Total (in.)Snow Depth
7:13 PM742333.84-11.3s---
5:13 PM772032.84-14.77s22.59--
4:13 PM792135.71-14.77sse20.86--
3:13 PM802136.54-14.77sse21.72--
2:13 PM802237.72-12.17sse26.94--
12:13 PM762436.59-15.64sse24.33--
11:13 AM742838.81-15.64s23.46--
10:13 AM713038-14.77sse20.86--
High: 79ºf @5:13 PM    Low: 73ºf @7:13 PM     Approx. Precipitation / Rain Total: in.
Time (PDT)Temp. (ºf)Humidity (%)Dew Point (ºf)Barometer (inHG)Wind Speed (mph)Wind DirectionWind Gust (mph)1hr. Precip / Rain Total (in.)Snow Depth
7:13 PM733442.96-4.34n9.56--
5:13 PM793548.99-6.08n13.9--
2:13 PM783648.86-6.08n13.03--
12:13 PM773748.71-7.82n12.17--
High: 82ºf @4:13 PM    Low: 77ºf @7:13 PM     Approx. Precipitation / Rain Total: in.
Time (PDT)Temp. (ºf)Humidity (%)Dew Point (ºf)Barometer (inHG)Wind Speed (mph)Wind DirectionWind Gust (mph)1hr. Precip / Rain Total (in.)Snow Depth
7:13 PM773748.71-6.08n11.3--
5:13 PM793448.21-7.82n13.03--
4:13 PM823652.38-5.21nnw12.17--
3:13 PM803751.36-6.95n13.9--
2:13 PM794052.59-6.95n12.17--
1:13 PM804053.48-6.08n11.3--
12:13 PM794052.59-6.08n10.43--
11:13 AM793548.99-6.08nne10.43--
10:13 AM783346.54-6.95n9.56--
High: 83ºf @3:13 PM    Low: 80ºf @6:13 PM     Approx. Precipitation / Rain Total: in.
Time (PDT)Temp. (ºf)Humidity (%)Dew Point (ºf)Barometer (inHG)Wind Speed (mph)Wind DirectionWind Gust (mph)1hr. Precip / Rain Total (in.)Snow Depth
6:13 PM803348.29-6.08n10.43--
5:13 PM823148.35-6.95n12.17--
3:13 PM833149.22-6.95n13.03--
2:13 PM823350.03-7.82n13.03--
1:13 PM813449.96-6.95n11.3--
12:13 PM803449.09-6.08-12.17--
11:13 AM813349.16-4.34n9.56--
10:13 AM812743.84-5.21n9.56--
High: 79ºf @4:13 PM    Low: 78ºf @2:13 PM     Approx. Precipitation / Rain Total: in.
Time (PDT)Temp. (ºf)Humidity (%)Dew Point (ºf)Barometer (inHG)Wind Speed (mph)Wind DirectionWind Gust (mph)1hr. Precip / Rain Total (in.)Snow Depth
4:13 PM793246.6-6.08n12.17--
2:13 PM783447.34-6.95nne13.03--
High: 73ºf @4:13 PM    Low: 66ºf @11:13 AM     Approx. Precipitation / Rain Total: in.
Time (PDT)Temp. (ºf)Humidity (%)Dew Point (ºf)Barometer (inHG)Wind Speed (mph)Wind DirectionWind Gust (mph)1hr. Precip / Rain Total (in.)Snow Depth
6:13 PM723542.84-6.08n13.03--
5:13 PM723442.08-6.08n13.03--
4:13 PM733644.45-6.08nnw13.03--
3:13 PM713844.1-6.08n12.17--
2:13 PM703943.89-6.95nnw14.77--
11:13 AM664644.62-8.69nne13.9--
10:13 AM664745.18-7.82ne10.43--
High: 76ºf @2:13 PM    Low: 71ºf @1:13 PM     Approx. Precipitation / Rain Total: in.
Time (PDT)Temp. (ºf)Humidity (%)Dew Point (ºf)Barometer (inHG)Wind Speed (mph)Wind DirectionWind Gust (mph)1hr. Precip / Rain Total (in.)Snow Depth
6:13 PM742333.84-6.08n14.77--
4:13 PM762335.51-6.95n14.77--
3:13 PM762436.59-7.82n13.9--
2:13 PM762840.53-6.95n13.9--
1:13 PM712937.13-8.69n14.77--
11:13 AM712735.33-7.82nne10.43--
High: 81ºf @5:13 PM    Low: 76ºf @10:13 AM     Approx. Precipitation / Rain Total: in.
Time (PDT)Temp. (ºf)Humidity (%)Dew Point (ºf)Barometer (inHG)Wind Speed (mph)Wind DirectionWind Gust (mph)1hr. Precip / Rain Total (in.)Snow Depth
6:13 PM792135.71-6.08n12.17--
5:13 PM811934.84-6.08n12.17--
4:13 PM802035.31-7.82nne12.17--
3:13 PM792135.71-6.95nne13.9--
12:13 PM772134.06-7.82nne12.17--
11:13 AM782134.89-6.95nne12.17--
10:13 AM761626.56-7.82nne11.3--
High: 81ºf @4:13 PM    Low: 76ºf @10:13 AM     Approx. Precipitation / Rain Total: in.
Time (PDT)Temp. (ºf)Humidity (%)Dew Point (ºf)Barometer (inHG)Wind Speed (mph)Wind DirectionWind Gust (mph)1hr. Precip / Rain Total (in.)Snow Depth
4:13 PM813349.16-6.08n13.03--
3:13 PM803549.86-7.82n13.9--
2:13 PM803549.86-6.08nne10.43--
1:13 PM783648.86-6.95nne13.9--
12:13 PM773950.13-6.95n13.9--
10:13 AM764452.49-6.08n10.43--
High: 76ºf @10:13 AM    Low: 76ºf @10:13 AM     Approx. Precipitation / Rain Total: in.
Time (PDT)Temp. (ºf)Humidity (%)Dew Point (ºf)Barometer (inHG)Wind Speed (mph)Wind DirectionWind Gust (mph)1hr. Precip / Rain Total (in.)Snow Depth
10:13 AM763647.1-5.21ne8.69--
Past Weather Disclaimer Note regarding "Approx. Precipitation / Rain Total"

Past Weather Nearby

More Local Information

Bookmark and Share

Grapevine weather and traffic updates by locals

Write your own Grapevine, California report, forecast, or traffic update:

Please note by clicking on "Post" you acknowledge that you have read the Terms of Service and the Grapevine, CA report and/or forecast you are posting is in compliance with such terms. Be respectful. An inappropriate Grapevine, CA report and/or forecast will be removed by a moderator.